ISIS 1

Last updated on Wed Nov 05 2025 00:02:13 GMT+0000 (Coordinated Universal Time)

1 03669U 69009A 25308.56030215 .00000200 00000+0 14058-3 0 9990 2 03669 88.4531 168.9694 1707810 341.8418 12.8143 11.30332483334390
UTC large
Height (km)
Speed (km/s)
/
Latitude / Longitude
Inclination (degrees)
Orbital Period (minutes)
Azimuth
Elevation
Range (km)
Doppler Factor

Next 0 passes for location: London (51.5072 / 0.1276)

Sorry there are no passes over London.